Wind_Speed
42 44 48 53 56 59 61 63 65 67 68 69 68 67 66 66 65 64 63 63 63 62 61 59 59 58 58 58 57 57 57 57 59 60 61 62 64 66 67 67 68 68 69
39 43 47 50 52 54 57 59 60 61 62 63 63 63 63 62 62 62 62 62 61 61 60 60 59 59 58 58 59 59 59 60 62 63 64 65 67 69 69 70 71 71 71
39 42 44 45 47 49 50 52 53 53 54 54 55 56 56 56 57 57 58 59 59 59 60 59 59 59 60 61 60 60 61 63 64 65 66 67 69 71 72 72 72 72 73
35 37 38 39 41 43 42 41 41 42 43 44 45 46 47 48 49 50 51 53 54 56 56 57 57 58 59 59 60 60 61 63 64 65 67 69 70 71 72 72 72 73 74
30 31 32 34 34 34 32 30 30 31 33 34 35 36 37 39 40 40 42 45 47 49 50 51 53 55 57 58 59 59 61 63 65 66 68 69 69 70 71 72 74 76 78
26 27 27 27 28 27 24 22 21 22 23 25 26 27 28 30 30 31 33 36 39 41 44 46 49 51 53 55 57 58 60 62 63 64 66 67 68 71 73 76 78 79 81
22 23 23 22 22 21 18 16 14 14 15 18 19 20 22 23 24 25 27 30 33 36 38 41 44 46 49 51 54 55 57 58 60 62 64 67 70 73 76 78 79 80 80
18 19 20 19 18 17 16 13 10 8 7 9 11 14 15 16 18 20 21 23 25 28 32 36 40 43 45 46 48 50 53 55 59 62 66 69 72 74 76 76 75 73 71
16 17 18 17 16 15 14 13 10 6 3 2 5 7 8 11 14 16 17 20 23 26 29 31 33 35 38 40 44 48 52 57 61 65 68 70 70 70 69 66 64 61 58
14 14 16 15 14 14 13 12 10 8 5 4 2 3 5 7 9 11 13 15 18 21 24 27 30 33 37 41 46 51 56 60 63 65 65 64 61 58 56 52 50 47 44
13 14 14 14 14 14 14 13 11 10 8 6 5 3 3 5 7 9 12 14 17 20 23 27 31 35 40 45 50 54 57 60 61 59 56 53 50 48 45 43 40 38 37
12 13 13 14 14 14 14 13 12 11 9 7 6 5 5 6 8 9 12 14 18 21 26 30 35 40 44 48 52 55 56 56 54 51 48 45 43 41 39 37 36 35 35
11 12 13 13 13 13 12 11 11 10 9 9 8 8 8 9 11 13 15 19 22 26 31 35 39 43 47 50 52 53 53 51 48 45 43 41 40 38 37 36 35 34 34
11 12 12 12 12 12 12 12 11 11 11 11 11 11 11 13 15 17 20 23 27 31 35 39 42 45 48 50 51 50 48 45 43 41 40 39 38 37 36 35 35 34 35
12 12 12 12 12 12 13 13 13 13 13 13 14 14 15 17 20 22 26 29 32 35 38 41 44 46 48 49 48 46 42 40 39 39 38 38 37 37 36 35 35 34 34
12 13 13 13 13 14 14 15 15 15 16 16 17 18 20 22 24 27 30 32 35 37 40 42 45 47 48 47 44 41 39 38 38 37 37 37 37 36 36 35 35 34 34
14 14 14 14 15 16 16 17 17 18 19 20 21 22 24 26 28 31 33 35 37 39 42 44 46 47 47 45 41 39 37 37 36 36 36 37 36 36 36 35 35 35 34
16 16 16 16 17 17 18 19 19 20 21 23 24 25 27 29 31 33 35 37 39 41 43 45 46 47 45 42 39 37 36 36 36 37 37 37 37 36 36 35 35 35 34
17 17 18 18 19 19 20 21 22 23 24 25 26 28 29 31 33 35 36 38 41 43 45 46 47 46 44 41 38 37 36 36 37 38 38 38 38 37 36 35 34 34 34
19 19 20 20 21 21 22 23 24 25 26 28 29 30 32 33 35 36 38 40 42 44 45 47 47 45 42 40 38 37 37 37 38 38 39 39 39 37 35 34 34 34 34
21 21 22 22 23 23 24 25 26 27 29 29 30 32 33 35 36 37 39 41 44 45 46 47 47 44 41 39 38 38 38 38 39 39 40 40 39 37 35 34 34 34 34
23 23 23 24 24 25 26 27 28 29 30 31 32 33 34 36 37 38 40 43 45 46 48 48 46 44 41 40 39 39 39 40 40 39 39 39 39 37 35 34 34 34 34
24 24 24 25 25 26 27 28 29 30 31 32 33 34 35 36 38 39 42 44 46 48 49 48 45 43 41 40 39 39 39 39 39 39 39 38 38 36 35 34 34 33 33
24 25 25 25 26 27 27 28 29 31 32 33 34 35 36 37 39 40 43 46 48 49 49 47 45 43 41 40 40 39 39 38 38 38 38 37 36 35 34 33 33 32 32
25 25 25 25 26 27 28 29 30 31 33 34 35 36 36 38 39 42 45 47 49 50 49 47 44 43 41 40 39 38 37 37 36 36 35 35 34 33 33 32 30 30 30
25 25 25 25 26 27 28 29 31 33 34 35 35 36 37 38 40 43 46 48 49 50 48 46 44 42 41 40 38 37 35 35 34 34 34 33 33 32 31 29 28 28 30
Wind_Direction
288 289 289 288 286 283 280 276 272 269 266 263 261 258 256 253 252 251 251 252 254 256 257 260 262 265 268 270 274 277 278 279 279 281 282 283 285 286 285 286 285 286 286
292 294 294 293 290 288 284 278 273 269 265 262 260 258 256 254 252 251 250 251 252 255 257 259 262 265 269 272 274 276 277 278 279 280 283 284 285 286 287 287 288 288 287
298 299 299 299 296 293 289 282 275 269 264 261 259 258 256 255 253 251 250 251 252 254 257 260 262 266 269 272 274 276 278 278 279 281 283 285 287 288 288 288 289 289 289
306 305 306 307 305 301 295 287 278 270 263 260 258 256 255 254 253 251 250 250 252 254 257 260 262 265 269 272 275 276 277 279 281 282 285 286 287 289 290 290 291 291 290
312 314 313 314 315 311 304 294 282 273 266 260 257 254 252 251 250 249 249 249 251 253 256 259 262 266 270 273 275 277 278 280 283 285 287 288 290 291 292 292 292 292 291
318 323 322 324 326 323 318 307 292 277 267 261 256 252 249 247 245 245 247 249 251 254 257 261 265 268 271 273 275 278 280 283 286 288 289 291 293 294 294 294 293 292 291
322 327 330 332 337 338 334 324 310 290 273 262 253 247 243 240 239 240 243 247 251 255 258 262 266 269 273 275 278 281 285 288 290 293 294 294 295 294 294 294 293 293 292
324 332 336 339 345 350 350 343 334 317 285 258 242 235 233 232 235 237 241 246 254 259 263 266 269 273 277 280 285 289 292 294 296 297 298 298 297 297 296 295 294 294 293
327 333 341 346 352 356 0 2 0 356 343 270 232 224 224 229 235 241 245 253 257 262 268 273 278 283 288 293 296 298 299 300 301 301 300 299 299 298 297 297 297 296 295
332 337 342 348 355 2 7 10 13 14 12 0 324 271 253 250 250 252 258 265 269 274 280 286 291 294 297 299 301 302 302 303 303 303 302 301 300 301 301 301 301 301 301
342 345 349 354 360 5 10 15 19 20 17 12 1 337 300 281 279 281 281 284 289 292 295 298 300 302 303 304 305 306 306 307 306 306 305 304 305 305 306 306 306 306 306
342 348 355 359 3 5 8 12 14 16 16 14 7 351 331 314 305 302 302 301 301 302 304 304 305 307 308 309 310 310 310 310 309 308 308 308 309 310 310 310 310 310 310
338 344 349 352 354 356 358 360 1 0 358 354 348 340 331 323 317 312 309 307 306 307 307 308 309 310 312 313 314 314 313 312 311 310 310 311 311 312 312 312 313 313 312
330 335 339 343 345 346 347 347 347 345 343 339 333 326 320 315 311 309 308 307 307 308 309 310 312 314 315 316 316 316 314 313 313 313 313 313 313 313 313 313 313 313 313
320 325 330 334 337 338 339 339 338 336 333 329 324 319 314 311 309 309 309 309 310 311 312 314 315 317 318 318 318 316 314 314 314 315 315 314 314 313 312 312 312 311 311
311 317 322 327 331 333 334 333 332 330 326 322 319 315 312 310 308 309 310 311 312 313 315 316 318 320 320 320 318 316 314 314 315 315 315 315 314 313 312 311 311 311 311
302 308 313 320 325 328 328 327 326 324 321 318 315 314 312 311 310 310 311 312 314 316 317 319 320 321 321 319 317 315 315 315 316 317 317 316 315 313 311 310 310 310 310
295 300 305 311 317 320 322 321 320 319 318 316 314 312 311 311 311 311 313 314 316 318 320 321 321 321 320 317 315 313 313 314 316 317 318 317 316 314 311 310 309 309 309
289 294 299 304 309 312 315 316 317 317 316 315 314 313 312 312 312 313 314 317 318 320 321 322 322 320 317 314 311 311 311 312 314 316 316 317 316 314 312 311 310 310 310
285 290 294 298 302 307 310 311 313 314 315 314 314 314 313 313 314 315 316 318 320 321 322 322 322 319 315 311 308 308 309 311 312 314 315 316 315 314 313 312 311 311 311
283 287 291 295 299 303 306 308 310 312 314 314 314 314 314 314 315 316 318 320 322 323 323 323 321 318 313 309 306 306 307 309 310 312 314 315 315 314 313 312 312 312 313
281 285 289 293 297 300 303 306 309 312 313 314 315 315 315 315 316 317 320 322 323 325 325 324 321 317 312 308 306 305 306 307 309 310 313 314 315 314 313 313 313 314 314
281 285 289 292 295 299 302 306 308 311 313 315 316 316 316 316 317 319 321 323 325 326 326 325 321 317 313 309 307 306 306 307 308 309 312 313 314 314 313 312 313 313 314
283 286 289 292 295 299 302 306 309 311 314 315 316 316 316 317 319 321 323 325 327 327 326 325 322 318 314 310 308 307 306 307 307 309 311 312 313 313 312 312 312 312 313
283 286 289 292 296 300 303 306 309 312 314 316 316 317 317 318 320 322 325 327 328 328 327 325 323 319 316 312 310 308 307 307 308 309 310 311 312 312 312 311 311 311 313
281 285 288 292 297 301 304 307 310 313 315 316 316 317 318 320 321 324 327 328 329 328 327 326 324 321 318 314 312 310 309 309 310 311 312 312 312 313 313 312 312 313 315
Height
5683 5678 5673 5667 5660 5654 5649 5643 5639 5637 5637 5637 5639 5643 5647 5653 5658 5662 5666 5670 5673 5676 5679 5680 5681 5681 5681 5681 5680 5678 5676 5673 5669 5666 5662 5658 5654 5650 5647 5642 5639 5635 5631
5672 5666 5660 5652 5644 5637 5630 5623 5619 5616 5616 5617 5620 5623 5628 5634 5640 5646 5651 5655 5659 5663 5666 5668 5669 5670 5669 5669 5667 5665 5662 5659 5655 5651 5647 5643 5638 5634 5629 5625 5620 5615 5611
5661 5654 5646 5638 5629 5621 5612 5605 5601 5598 5599 5600 5603 5607 5612 5617 5623 5630 5636 5641 5646 5650 5653 5655 5657 5657 5657 5655 5654 5651 5648 5644 5640 5636 5632 5627 5622 5616 5612 5607 5601 5595 5590
5651 5643 5635 5626 5617 5607 5598 5591 5587 5585 5585 5587 5590 5594 5598 5603 5609 5615 5621 5627 5633 5637 5640 5643 5644 5644 5643 5642 5640 5637 5634 5630 5626 5621 5616 5611 5605 5599 5593 5588 5582 5575 5569
5643 5635 5627 5618 5608 5598 5589 5582 5578 5576 5576 5578 5580 5584 5588 5592 5598 5603 5609 5615 5621 5625 5628 5630 5632 5632 5631 5629 5627 5624 5621 5616 5611 5606 5600 5594 5588 5581 5575 5569 5562 5555 5547
5636 5629 5621 5612 5603 5594 5585 5578 5574 5571 5571 5572 5574 5577 5580 5584 5589 5594 5600 5605 5610 5614 5617 5619 5621 5620 5619 5617 5614 5611 5606 5601 5596 5590 5584 5578 5570 5563 5556 5548 5541 5533 5524
5631 5624 5617 5609 5601 5592 5584 5578 5573 5570 5569 5569 5570 5572 5575 5579 5583 5588 5592 5597 5601 5605 5608 5609 5610 5609 5608 5605 5602 5597 5592 5586 5581 5575 5568 5561 5553 5545 5536 5527 5517 5509 5499
5627 5621 5614 5607 5600 5592 5585 5579 5575 5571 5569 5568 5569 5571 5573 5576 5580 5583 5587 5591 5594 5597 5599 5600 5600 5599 5596 5593 5589 5583 5577 5572 5566 5559 5552 5542 5533 5523 5514 5504 5495 5486 5476
5623 5618 5612 5606 5600 5593 5587 5582 5577 5574 5572 5570 5570 5571 5573 5575 5578 5581 5584 5587 5589 5591 5591 5591 5590 5588 5585 5581 5577 5571 5564 5557 5549 5541 5532 5522 5512 5502 5493 5484 5475 5467 5459
5621 5616 5611 5606 5600 5595 5589 5585 5580 5577 5575 5573 5573 5573 5574 5576 5578 5580 5582 5583 5584 5585 5584 5583 5581 5578 5575 5570 5564 5557 5550 5541 5532 5522 5513 5503 5494 5485 5476 5468 5460 5452 5445
5619 5615 5610 5606 5601 5596 5592 5587 5584 5581 5578 5577 5576 5576 5576 5577 5578 5579 5579 5579 5579 5579 5577 5575 5573 5569 5564 5558 5551 5543 5534 5524 5514 5505 5495 5487 5478 5471 5463 5455 5448 5442 5436
5617 5614 5610 5605 5601 5597 5594 5590 5587 5584 5582 5580 5579 5578 5578 5577 5577 5577 5576 5575 5574 5573 5571 5567 5563 5558 5552 5545 5536 5527 5518 5508 5498 5489 5481 5474 5466 5459 5452 5446 5439 5433 5426
5616 5612 5609 5605 5602 5598 5595 5592 5589 5586 5584 5582 5580 5579 5577 5576 5575 5574 5573 5571 5569 5566 5563 5558 5553 5547 5539 5531 5522 5513 5503 5494 5485 5478 5470 5463 5456 5450 5443 5437 5430 5424 5418
5614 5611 5608 5604 5601 5598 5595 5592 5589 5586 5584 5582 5580 5578 5576 5575 5573 5571 5569 5566 5563 5559 5554 5549 5542 5535 5527 5518 5509 5500 5491 5483 5475 5468 5460 5453 5447 5440 5434 5428 5422 5416 5410
5612 5609 5606 5603 5600 5596 5593 5590 5588 5585 5583 5580 5578 5576 5574 5571 5569 5566 5563 5559 5555 5550 5544 5538 5531 5523 5514 5506 5497 5488 5480 5473 5466 5459 5452 5445 5438 5432 5426 5421 5415 5409 5403
5609 5606 5603 5600 5597 5594 5591 5588 5586 5583 5580 5577 5575 5572 5569 5567 5563 5560 5556 5551 5546 5540 5534 5527 5519 5511 5503 5494 5485 5478 5471 5464 5457 5450 5444 5437 5430 5424 5418 5412 5407 5401 5396
5606 5603 5600 5597 5594 5591 5588 5586 5583 5580 5577 5574 5571 5567 5564 5561 5557 5552 5548 5543 5537 5530 5524 5516 5508 5499 5491 5482 5475 5468 5461 5455 5448 5442 5435 5429 5422 5416 5410 5404 5398 5393 5388
5601 5599 5596 5594 5591 5588 5585 5582 5579 5576 5572 5569 5566 5562 5558 5554 5549 5544 5539 5534 5527 5520 5513 5505 5497 5489 5480 5472 5465 5459 5452 5446 5440 5433 5427 5421 5414 5408 5401 5396 5390 5384 5379
5597 5594 5592 5589 5586 5583 5580 5577 5574 5570 5567 5563 5560 5555 5551 5546 5542 5536 5530 5524 5518 5511 5503 5495 5487 5478 5470 5463 5456 5450 5444 5438 5431 5425 5418 5412 5405 5399 5393 5387 5381 5376 5370
5591 5589 5586 5584 5581 5578 5575 5572 5568 5565 5561 5557 5553 5548 5544 5539 5533 5528 5522 5515 5508 5501 5493 5485 5476 5467 5460 5453 5447 5441 5435 5429 5423 5416 5410 5403 5397 5390 5384 5378 5373 5367 5362
5585 5583 5580 5578 5575 5572 5569 5566 5562 5559 5555 5550 5546 5541 5536 5531 5525 5519 5513 5506 5499 5491 5483 5474 5465 5457 5450 5443 5437 5431 5426 5420 5414 5407 5401 5394 5388 5381 5376 5370 5364 5359 5353
5578 5576 5574 5572 5569 5566 5563 5560 5556 5552 5548 5543 5538 5533 5528 5522 5517 5511 5504 5497 5489 5481 5472 5463 5455 5447 5440 5433 5427 5421 5416 5410 5404 5398 5392 5385 5379 5373 5367 5361 5356 5350 5345
5571 5569 5567 5565 5562 5559 5556 5553 5549 5545 5540 5536 5531 5525 5520 5514 5508 5502 5495 5488 5480 5471 5462 5453 5444 5436 5429 5423 5417 5411 5405 5400 5394 5388 5382 5376 5370 5364 5359 5353 5348 5342 5337
5564 5563 5560 5558 5555 5552 5549 5546 5542 5537 5533 5528 5523 5517 5512 5506 5500 5494 5487 5479 5470 5461 5452 5443 5434 5426 5419 5412 5406 5400 5395 5389 5384 5378 5373 5367 5362 5356 5351 5346 5340 5335 5330
5557 5555 5553 5551 5548 5545 5542 5538 5534 5530 5525 5520 5515 5510 5504 5498 5492 5485 5478 5469 5461 5451 5442 5433 5424 5416 5409 5402 5395 5390 5384 5379 5374 5369 5364 5359 5354 5348 5343 5338 5333 5328 5322
5550 5548 5546 5543 5541 5538 5535 5531 5527 5522 5518 5513 5507 5502 5496 5490 5483 5476 5468 5460 5451 5442 5433 5424 5415 5407 5399 5392 5385 5379 5374 5369 5365 5360 5355 5350 5345 5340 5335 5330 5325 5320 5315